Location: Dillon
(41.1766°N, 107.0923°W)
Time: 07:25:21
(UTC+00:00)

QB50P2 - Pass Details

Date: 26 June 2022
Orbit: 590 x 605 km, 97.9° (Epoch: 09 August)

Event Time Altitude Azimuth Distance (km) Brightness Sun altitude
Rises 08:52:53 0° 7° (N) 2,853 ? -21.3°
Reaches altitude 10° 08:55:06 10° 3° (N) 1,948 ? -21.1°
Maximum altitude 08:59:12 53° 287° (WNW) 745 ? -20.8°
Enters shadow 08:59:52 47° 253° (WSW) 798 ? -20.7°
